BAW641 EBBR-EDDF

Flight info

Callsign BAW641
Flight time 1h 12m
Altitude 23000
Route SPI4G SPI T180 NIVNU T847 IMCOM IMCOM2C
Aircraft A320/M-SDE3FGHIKRWXY/S

Departure

Time 2026-04-15 09:56
Airport Brussels Airport (EBBR)

Arrival

Time 2026-04-15 11:08
Airport Frankfurt Main Airport (EDDF)
Time Latitude Longitude Altitude Speed Heading
2026-04-15 09:22 50.90092 4.48836 131 ft 0 kts 155°
2026-04-15 09:48 50.90106 4.48825 130 ft 3 kts 155°
2026-04-15 09:49 50.90123 4.48813 124 ft 3 kts 155°
2026-04-15 09:49 50.90139 4.48801 127 ft 3 kts 155°
2026-04-15 09:49 50.90155 4.48788 128 ft 2 kts 112°
2026-04-15 09:49 50.90157 4.48772 128 ft 0 kts 70°
2026-04-15 09:51 50.90158 4.48776 128 ft 1 kts 70°
2026-04-15 09:51 50.90165 4.48799 132 ft 3 kts 66°
2026-04-15 09:51 50.90183 4.48853 124 ft 8 kts 61°
2026-04-15 09:52 50.90216 4.48950 124 ft 12 kts 61°
2026-04-15 09:52 50.90259 4.49081 126 ft 15 kts 64°
2026-04-15 09:52 50.90303 4.49240 127 ft 17 kts 67°
2026-04-15 09:52 50.90355 4.49433 123 ft 21 kts 67°
2026-04-15 09:53 50.90458 4.49598 123 ft 23 kts 16°
2026-04-15 09:53 50.90622 4.49669 122 ft 26 kts 15°
2026-04-15 09:53 50.90743 4.49712 121 ft 15 kts 12°
2026-04-15 09:53 50.90856 4.49753 124 ft 18 kts 16°
2026-04-15 09:54 50.90971 4.49851 120 ft 21 kts 42°
2026-04-15 09:54 50.91104 4.49945 115 ft 13 kts 341°
2026-04-15 09:54 50.91128 4.49850 116 ft 11 kts 252°
2026-04-15 09:54 50.91117 4.49812 116 ft 0 kts 245°
2026-04-15 09:55 50.91117 4.49811 118 ft 1 kts 245°
2026-04-15 09:55 50.91106 4.49772 117 ft 19 kts 245°
2026-04-15 09:55 50.90942 4.49206 117 ft 90 kts 246°
2026-04-15 09:55 50.90604 4.48030 119 ft 142 kts 245°
2026-04-15 09:56 50.90151 4.46510 517 ft 150 kts 244°
2026-04-15 09:56 50.89725 4.44993 1072 ft 154 kts 243°
2026-04-15 09:56 50.88813 4.41851 2160 ft 159 kts 239°
2026-04-15 09:57 50.88080 4.40441 2478 ft 177 kts 218°
2026-04-15 09:57 50.86974 4.39359 2759 ft 199 kts 202°
2026-04-15 09:57 50.85563 4.38750 3083 ft 224 kts 185°
2026-04-15 09:57 50.83937 4.38886 3553 ft 245 kts 167°
2026-04-15 09:58 50.82346 4.39968 4350 ft 255 kts 147°
2026-04-15 09:58 50.81065 4.41939 5263 ft 262 kts 126°
2026-04-15 09:58 50.80330 4.44597 6140 ft 269 kts 103°
2026-04-15 09:58 50.80310 4.47584 6985 ft 278 kts 82°
2026-04-15 09:59 50.80639 4.50568 7805 ft 281 kts 84°
2026-04-15 09:59 50.80826 4.53657 8611 ft 284 kts 89°
2026-04-15 09:59 50.80836 4.56804 9409 ft 288 kts 94°
2026-04-15 09:59 50.80655 4.59979 10169 ft 292 kts 99°
2026-04-15 10:00 50.80276 4.63154 10912 ft 296 kts 105°
2026-04-15 10:00 50.79704 4.66293 11620 ft 301 kts 110°
2026-04-15 10:00 50.79207 4.68398 11803 ft 315 kts 113°
2026-04-15 10:00 50.78340 4.71718 11969 ft 339 kts 111°
2026-04-15 10:01 50.77590 4.75330 12379 ft 351 kts 108°
2026-04-15 10:01 50.76777 4.79001 13010 ft 356 kts 112°
2026-04-15 10:01 50.75834 4.82648 13670 ft 360 kts 114°
2026-04-15 10:01 50.74815 4.86282 14315 ft 364 kts 115°
2026-04-15 10:02 50.73737 4.89913 14940 ft 367 kts 116°
2026-04-15 10:02 50.72619 4.93568 15537 ft 371 kts 117°
2026-04-15 10:02 50.71483 4.97248 16129 ft 375 kts 117°
2026-04-15 10:02 50.70335 5.00967 16709 ft 379 kts 116°
2026-04-15 10:03 50.69184 5.04723 17280 ft 382 kts 116°
2026-04-15 10:03 50.68026 5.08524 17837 ft 386 kts 116°
2026-04-15 10:03 50.66858 5.12362 18401 ft 390 kts 116°
2026-04-15 10:03 50.65678 5.16238 18970 ft 394 kts 116°
2026-04-15 10:04 50.64492 5.20135 19553 ft 397 kts 116°
2026-04-15 10:04 50.63285 5.24089 20097 ft 401 kts 116°
2026-04-15 10:04 50.62067 5.28064 20665 ft 405 kts 116°
2026-04-15 10:04 50.60836 5.32076 21205 ft 409 kts 116°
2026-04-15 10:05 50.59609 5.36063 21729 ft 412 kts 116°
2026-04-15 10:05 50.58351 5.40135 22225 ft 415 kts 116°
2026-04-15 10:05 50.57081 5.44236 22722 ft 418 kts 116°
2026-04-15 10:05 50.55806 5.48355 23110 ft 421 kts 116°
2026-04-15 10:06 50.54524 5.52509 23204 ft 424 kts 116°
2026-04-15 10:06 50.53234 5.56684 23220 ft 427 kts 116°
2026-04-15 10:06 50.51943 5.60884 23221 ft 427 kts 114°
2026-04-15 10:06 50.50927 5.65274 23220 ft 427 kts 106°
2026-04-15 10:07 50.50097 5.69755 23219 ft 427 kts 106°
2026-04-15 10:07 50.49266 5.74228 23219 ft 427 kts 106°
2026-04-15 10:07 50.48425 5.78716 23221 ft 427 kts 106°
2026-04-15 10:07 50.47585 5.83177 23219 ft 427 kts 106°
2026-04-15 10:08 50.46741 5.87651 23216 ft 427 kts 106°
2026-04-15 10:08 50.45900 5.92110 23216 ft 427 kts 106°
2026-04-15 10:08 50.45053 5.96592 23218 ft 427 kts 106°
2026-04-15 10:08 50.44209 6.01052 23222 ft 427 kts 106°
2026-04-15 10:09 50.43362 6.05516 23227 ft 426 kts 106°
2026-04-15 10:09 50.42518 6.09965 23227 ft 426 kts 106°
2026-04-15 10:09 50.41668 6.14420 23231 ft 426 kts 106°
2026-04-15 10:09 50.40832 6.18802 23233 ft 426 kts 106°
2026-04-15 10:10 50.39981 6.23248 23236 ft 426 kts 106°
2026-04-15 10:10 50.39126 6.27696 23233 ft 426 kts 106°
2026-04-15 10:10 50.38270 6.32137 23229 ft 426 kts 106°
2026-04-15 10:10 50.37411 6.36589 23229 ft 426 kts 106°
2026-04-15 10:11 50.36596 6.41040 23230 ft 425 kts 102°
2026-04-15 10:11 50.36161 6.45616 23227 ft 425 kts 94°
2026-04-15 10:11 50.35894 6.50225 23226 ft 425 kts 94°
2026-04-15 10:11 50.35617 6.54828 23232 ft 425 kts 95°
2026-04-15 10:12 50.35326 6.59436 23230 ft 425 kts 95°
2026-04-15 10:12 50.35029 6.64032 23234 ft 425 kts 95°
2026-04-15 10:12 50.34726 6.68642 23235 ft 425 kts 95°
2026-04-15 10:12 50.34421 6.73264 23231 ft 425 kts 95°
2026-04-15 10:13 50.34125 6.77811 23233 ft 425 kts 95°
2026-04-15 10:13 50.33815 6.82468 23236 ft 425 kts 97°
2026-04-15 10:13 50.33189 6.86989 23227 ft 426 kts 107°
2026-04-15 10:13 50.32128 6.91254 23004 ft 416 kts 115°
2026-04-15 10:14 50.30934 6.95259 22764 ft 407 kts 115°
2026-04-15 10:14 50.29735 6.99251 22345 ft 404 kts 115°
2026-04-15 10:14 50.28545 7.03223 21825 ft 403 kts 115°
2026-04-15 10:14 50.27355 7.07205 21286 ft 403 kts 115°
2026-04-15 10:15 50.26171 7.11169 20751 ft 402 kts 115°
2026-04-15 10:15 50.24990 7.15120 20225 ft 401 kts 115°
2026-04-15 10:15 50.23811 7.19051 19699 ft 399 kts 115°
2026-04-15 10:15 50.22630 7.22975 19174 ft 398 kts 115°
2026-04-15 10:16 50.21457 7.26865 18653 ft 395 kts 115°
2026-04-15 10:16 50.20289 7.30732 18133 ft 393 kts 115°
2026-04-15 10:16 50.19156 7.34606 17615 ft 390 kts 113°
2026-04-15 10:16 50.18144 7.38525 17102 ft 387 kts 111°
2026-04-15 10:17 50.17217 7.42454 16585 ft 384 kts 110°
2026-04-15 10:17 50.16331 7.46362 16087 ft 380 kts 109°
2026-04-15 10:17 50.15457 7.50225 15590 ft 377 kts 109°
2026-04-15 10:17 50.14578 7.54054 15094 ft 373 kts 110°
2026-04-15 10:18 50.13694 7.57819 14613 ft 368 kts 110°
2026-04-15 10:18 50.12799 7.61544 14125 ft 364 kts 111°
2026-04-15 10:18 50.11910 7.65214 13649 ft 360 kts 111°
2026-04-15 10:18 50.11035 7.68843 13187 ft 356 kts 110°
2026-04-15 10:19 50.10259 7.72433 13053 ft 343 kts 108°
2026-04-15 10:19 50.09563 7.75984 12980 ft 341 kts 107°
2026-04-15 10:19 50.08900 7.79524 12904 ft 340 kts 106°
2026-04-15 10:19 50.08258 7.82985 12820 ft 333 kts 106°
2026-04-15 10:20 50.07620 7.86379 12692 ft 320 kts 107°
2026-04-15 10:20 50.06990 7.89653 12479 ft 314 kts 107°
2026-04-15 10:20 50.06349 7.92890 12224 ft 314 kts 107°
2026-04-15 10:20 50.05675 7.96244 11969 ft 330 kts 107°
2026-04-15 10:21 50.04988 7.99650 11715 ft 332 kts 107°
2026-04-15 10:21 50.04299 8.03069 11489 ft 331 kts 108°
2026-04-15 10:21 50.03612 8.06484 11231 ft 329 kts 108°
2026-04-15 10:21 50.02923 8.09872 10981 ft 328 kts 108°
2026-04-15 10:22 50.02237 8.13249 10740 ft 326 kts 108°
2026-04-15 10:22 50.01559 8.16589 10489 ft 324 kts 108°
2026-04-15 10:22 50.01014 8.19989 10237 ft 322 kts 98°
2026-04-15 10:22 50.00928 8.23409 10096 ft 312 kts 87°
2026-04-15 10:23 50.01236 8.26686 9970 ft 301 kts 81°
2026-04-15 10:23 50.01601 8.29829 9845 ft 291 kts 81°
2026-04-15 10:23 50.01953 8.32903 9725 ft 288 kts 81°
2026-04-15 10:23 50.02300 8.35966 9593 ft 287 kts 81°
2026-04-15 10:24 50.02637 8.38982 9474 ft 286 kts 82°
2026-04-15 10:24 50.02975 8.42030 9349 ft 286 kts 81°
2026-04-15 10:24 50.03313 8.45070 9223 ft 285 kts 81°
2026-04-15 10:24 50.03650 8.48115 9095 ft 285 kts 82°
2026-04-15 10:25 50.03983 8.51134 8977 ft 284 kts 82°
2026-04-15 10:25 50.04319 8.54168 8847 ft 284 kts 82°
2026-04-15 10:25 50.04655 8.57195 8721 ft 283 kts 82°
2026-04-15 10:25 50.04988 8.60216 8597 ft 283 kts 81°
2026-04-15 10:26 50.05335 8.63217 8462 ft 282 kts 78°
2026-04-15 10:26 50.05927 8.66121 8347 ft 282 kts 71°
2026-04-15 10:26 50.06598 8.68992 8218 ft 281 kts 71°
2026-04-15 10:26 50.07263 8.71853 8092 ft 281 kts 71°
2026-04-15 10:27 50.07923 8.74708 7976 ft 280 kts 71°
2026-04-15 10:27 50.08585 8.77563 7844 ft 279 kts 71°
2026-04-15 10:27 50.09241 8.80408 7722 ft 279 kts 71°
2026-04-15 10:27 50.09887 8.83204 7594 ft 278 kts 71°
2026-04-15 10:28 50.10538 8.86034 7467 ft 277 kts 71°
2026-04-15 10:28 50.11187 8.88859 7345 ft 277 kts 71°
2026-04-15 10:28 50.11835 8.91677 7263 ft 275 kts 71°
2026-04-15 10:28 50.12484 8.94497 7280 ft 277 kts 71°
2026-04-15 10:29 50.12942 8.97389 7268 ft 275 kts 88°
2026-04-15 10:29 50.12675 9.00304 7267 ft 273 kts 111°
2026-04-15 10:29 50.11676 9.02792 7267 ft 271 kts 135°
2026-04-15 10:29 50.10121 9.04431 7266 ft 272 kts 158°
2026-04-15 10:30 50.08268 9.04950 7264 ft 272 kts 182°
2026-04-15 10:30 50.06436 9.04266 7267 ft 273 kts 206°
2026-04-15 10:30 50.04927 9.02486 7265 ft 275 kts 230°
2026-04-15 10:30 50.04002 8.99894 7266 ft 276 kts 251°
2026-04-15 10:31 50.03423 8.97067 7264 ft 277 kts 252°
2026-04-15 10:31 50.02844 8.94198 7266 ft 269 kts 252°
2026-04-15 10:31 50.02298 8.91499 7279 ft 255 kts 251°
2026-04-15 10:31 50.01787 8.88964 7280 ft 246 kts 251°
2026-04-15 10:32 50.01275 8.86441 7282 ft 244 kts 251°
2026-04-15 10:32 50.00752 8.83894 7276 ft 245 kts 251°
2026-04-15 10:32 50.00237 8.81396 7266 ft 245 kts 251°
2026-04-15 10:32 49.99718 8.78883 7278 ft 245 kts 251°
2026-04-15 10:33 49.99194 8.76361 7279 ft 246 kts 251°
2026-04-15 10:33 49.98667 8.73812 7278 ft 247 kts 251°
2026-04-15 10:33 49.98142 8.71268 7268 ft 247 kts 250°
2026-04-15 10:33 49.97572 8.68756 7281 ft 246 kts 249°
2026-04-15 10:34 49.96976 8.66269 7279 ft 246 kts 248°
2026-04-15 10:34 49.96367 8.63775 7276 ft 246 kts 248°
2026-04-15 10:34 49.95760 8.61286 7267 ft 247 kts 248°
2026-04-15 10:34 49.95157 8.58808 7278 ft 246 kts 248°
2026-04-15 10:35 49.94551 8.56307 7277 ft 246 kts 248°
2026-04-15 10:35 49.93951 8.53822 7274 ft 246 kts 248°
2026-04-15 10:35 49.93347 8.51339 7272 ft 246 kts 248°
2026-04-15 10:35 49.92744 8.48853 7281 ft 246 kts 248°
2026-04-15 10:36 49.92146 8.46382 7271 ft 239 kts 248°
2026-04-15 10:36 49.91568 8.43992 6978 ft 238 kts 248°
2026-04-15 10:36 49.90983 8.41570 6572 ft 242 kts 248°
2026-04-15 10:36 49.90388 8.39122 6260 ft 242 kts 249°
2026-04-15 10:37 49.89798 8.36683 5978 ft 241 kts 249°
2026-04-15 10:37 49.89213 8.34237 5697 ft 241 kts 249°
2026-04-15 10:37 49.88630 8.31811 5417 ft 239 kts 249°
2026-04-15 10:37 49.88046 8.29407 5152 ft 238 kts 249°
2026-04-15 10:38 49.87460 8.27007 4861 ft 237 kts 249°
2026-04-15 10:38 49.86878 8.24626 4566 ft 237 kts 249°
2026-04-15 10:38 49.86296 8.22246 4284 ft 235 kts 249°
2026-04-15 10:38 49.85719 8.19883 4052 ft 233 kts 249°
2026-04-15 10:39 49.85144 8.17526 4003 ft 235 kts 249°
2026-04-15 10:39 49.84566 8.15146 4006 ft 236 kts 249°
2026-04-15 10:39 49.83989 8.12769 4001 ft 235 kts 249°
2026-04-15 10:39 49.83410 8.10397 4003 ft 236 kts 249°
2026-04-15 10:40 49.82830 8.08027 4002 ft 236 kts 249°
2026-04-15 10:40 49.82259 8.05684 3997 ft 236 kts 249°
2026-04-15 10:40 49.81670 8.03274 4006 ft 236 kts 249°
2026-04-15 10:40 49.81098 8.00943 3998 ft 235 kts 249°
2026-04-15 10:41 49.80515 7.98573 4012 ft 235 kts 248°
2026-04-15 10:41 49.79930 7.96205 4008 ft 235 kts 248°
2026-04-15 10:41 49.79347 7.93835 4005 ft 235 kts 248°
2026-04-15 10:41 49.78754 7.91459 3999 ft 235 kts 248°
2026-04-15 10:42 49.78160 7.89099 4001 ft 235 kts 248°
2026-04-15 10:42 49.77588 7.86728 3990 ft 236 kts 255°
2026-04-15 10:42 49.77517 7.84215 3989 ft 236 kts 282°
2026-04-15 10:42 49.78194 7.81938 3989 ft 235 kts 311°
2026-04-15 10:43 49.79474 7.80418 3991 ft 233 kts 339°
2026-04-15 10:43 49.81035 7.79988 3998 ft 232 kts
2026-04-15 10:43 49.82565 7.80712 3993 ft 230 kts 32°
2026-04-15 10:43 49.83930 7.82017 3989 ft 231 kts 33°
2026-04-15 10:44 49.85313 7.83343 3995 ft 231 kts 33°
2026-04-15 10:44 49.86685 7.84652 3989 ft 230 kts 33°
2026-04-15 10:44 49.87902 7.86197 3996 ft 230 kts 50°
2026-04-15 10:44 49.88766 7.88265 3989 ft 229 kts 68°
2026-04-15 10:45 49.89334 7.90563 3992 ft 229 kts 70°
2026-04-15 10:45 49.89904 7.92878 3990 ft 229 kts 70°
2026-04-15 10:45 49.90469 7.95189 3987 ft 229 kts 70°
2026-04-15 10:45 49.91032 7.97505 3995 ft 229 kts 70°
2026-04-15 10:46 49.91598 7.99811 4005 ft 229 kts 70°
2026-04-15 10:46 49.92164 8.02120 4000 ft 229 kts 70°
2026-04-15 10:46 49.92727 8.04417 4007 ft 230 kts 70°
2026-04-15 10:46 49.92857 8.04943 4001 ft 228 kts 68°
2026-04-15 10:47 49.93453 8.07326 3996 ft 227 kts 70°
2026-04-15 10:47 49.94008 8.09642 3993 ft 229 kts 70°
2026-04-15 10:47 49.94567 8.11941 3997 ft 223 kts 70°
2026-04-15 10:47 49.95100 8.14128 4001 ft 210 kts 70°
2026-04-15 10:48 49.95464 8.15608 3999 ft 209 kts 70°
2026-04-15 10:48 49.95983 8.17743 4018 ft 213 kts 70°
2026-04-15 10:48 49.96505 8.19897 4014 ft 210 kts 70°
2026-04-15 10:48 49.96993 8.21904 4006 ft 189 kts 70°
2026-04-15 10:49 49.97295 8.23147 3980 ft 185 kts 70°
2026-04-15 10:49 49.98296 8.25462 3898 ft 214 kts 46°
2026-04-15 10:49 49.99021 8.26575 3849 ft 226 kts 44°
2026-04-15 10:49 50.00176 8.28265 3781 ft 228 kts 44°
2026-04-15 10:50 50.01339 8.29947 3744 ft 230 kts 44°
2026-04-15 10:50 50.02521 8.31659 4521 ft 232 kts 44°
2026-04-15 10:50 50.03707 8.33373 5444 ft 234 kts 44°
2026-04-15 10:50 50.04909 8.35112 6302 ft 237 kts 44°
2026-04-15 10:51 50.06135 8.36892 6828 ft 244 kts 43°
2026-04-15 10:51 50.07574 8.38267 6973 ft 246 kts 18°
2026-04-15 10:51 50.09263 8.38502 7006 ft 246 kts 350°
2026-04-15 10:51 50.10823 8.37500 7004 ft 246 kts 322°
2026-04-15 10:52 50.11500 8.36515 6996 ft 247 kts 309°
2026-04-15 10:52 50.12203 8.34435 7015 ft 244 kts 282°
2026-04-15 10:52 50.12243 8.31809 7010 ft 243 kts 255°
2026-04-15 10:52 50.11535 8.29451 7016 ft 242 kts 233°
2026-04-15 10:53 50.10539 8.27324 7008 ft 243 kts 233°
2026-04-15 10:53 50.09549 8.25195 7012 ft 243 kts 233°
2026-04-15 10:53 50.08562 8.23062 7010 ft 243 kts 233°
2026-04-15 10:53 50.07575 8.20927 7011 ft 243 kts 233°
2026-04-15 10:54 50.06592 8.18795 7010 ft 243 kts 233°
2026-04-15 10:54 50.05604 8.16652 7015 ft 243 kts 233°
2026-04-15 10:54 50.04618 8.14518 7013 ft 243 kts 233°
2026-04-15 10:54 50.03633 8.12385 7014 ft 243 kts 233°
2026-04-15 10:55 50.02645 8.10256 7017 ft 243 kts 233°
2026-04-15 10:55 50.01656 8.08130 7015 ft 243 kts 233°
2026-04-15 10:55 50.00679 8.06027 7015 ft 243 kts 233°
2026-04-15 10:55 49.99689 8.03895 7001 ft 243 kts 233°
2026-04-15 10:56 49.98701 8.01770 7011 ft 243 kts 233°
2026-04-15 10:56 49.97708 7.99640 7015 ft 243 kts 233°
2026-04-15 10:56 49.96717 7.97515 7004 ft 243 kts 233°
2026-04-15 10:56 49.95726 7.95391 7000 ft 243 kts 233°
2026-04-15 10:57 49.94736 7.93259 7003 ft 243 kts 233°
2026-04-15 10:57 49.92771 7.88990 6996 ft 243 kts 234°
2026-04-15 10:57 49.91778 7.86877 6873 ft 241 kts 227°
2026-04-15 10:58 49.90461 7.85332 6576 ft 238 kts 202°
2026-04-15 10:58 49.88861 7.84854 6271 ft 235 kts 175°
2026-04-15 10:58 49.87300 7.85526 5946 ft 234 kts 149°
2026-04-15 10:58 49.86098 7.87179 5632 ft 233 kts 123°
2026-04-15 10:59 49.85486 7.89468 5320 ft 231 kts 98°
2026-04-15 10:59 49.85576 7.91929 5053 ft 230 kts 72°
2026-04-15 10:59 49.86343 7.94079 4994 ft 231 kts 48°
2026-04-15 10:59 49.87648 7.95539 4993 ft 234 kts 22°
2026-04-15 11:00 49.89242 7.96049 4993 ft 235 kts
2026-04-15 11:00 49.90767 7.96763 4985 ft 233 kts 37°
2026-04-15 11:00 49.91697 7.98733 4997 ft 230 kts 76°
2026-04-15 11:00 49.91963 8.01180 5000 ft 231 kts 77°
2026-04-15 11:01 49.92478 8.03545 5001 ft 231 kts 69°
2026-04-15 11:01 49.93072 8.05867 5003 ft 230 kts 69°
2026-04-15 11:01 49.93634 8.08124 5001 ft 217 kts 70°
2026-04-15 11:01 49.94162 8.10279 5004 ft 212 kts 70°
2026-04-15 11:02 49.94685 8.12424 5007 ft 212 kts 70°
2026-04-15 11:02 49.95205 8.14556 5009 ft 211 kts 70°
2026-04-15 11:02 49.95727 8.16696 4922 ft 212 kts 70°
2026-04-15 11:02 49.96247 8.18833 4674 ft 210 kts 70°
2026-04-15 11:03 49.96755 8.20927 4424 ft 205 kts 70°
2026-04-15 11:03 49.97241 8.22924 4129 ft 195 kts 70°
2026-04-15 11:03 49.97711 8.24857 3843 ft 184 kts 70°
2026-04-15 11:03 49.98151 8.26674 3577 ft 181 kts 70°
2026-04-15 11:04 49.98589 8.28485 3341 ft 179 kts 70°
2026-04-15 11:04 49.99029 8.30301 3077 ft 177 kts 70°
2026-04-15 11:04 49.99470 8.32127 2831 ft 178 kts 70°
2026-04-15 11:04 49.99897 8.33893 2578 ft 177 kts 70°
2026-04-15 11:05 50.00330 8.35682 2326 ft 174 kts 69°
2026-04-15 11:05 50.00740 8.37380 2090 ft 160 kts 69°
2026-04-15 11:05 50.01110 8.38915 1879 ft 146 kts 69°
2026-04-15 11:05 50.01460 8.40367 1678 ft 142 kts 69°
2026-04-15 11:06 50.01803 8.41794 1472 ft 140 kts 69°
2026-04-15 11:06 50.02146 8.43215 1278 ft 140 kts 69°
2026-04-15 11:06 50.02485 8.44627 1081 ft 139 kts 69°
2026-04-15 11:06 50.02823 8.46031 885 ft 139 kts 70°
2026-04-15 11:07 50.03161 8.47434 684 ft 138 kts 71°
2026-04-15 11:07 50.03486 8.48838 471 ft 138 kts 71°
2026-04-15 11:07 50.03833 8.50218 332 ft 137 kts 71°
2026-04-15 11:07 50.04117 8.51453 329 ft 103 kts 69°
2026-04-15 11:08 50.04297 8.52192 338 ft 50 kts 69°
2026-04-15 11:08 50.04379 8.52571 345 ft 27 kts 79°
2026-04-15 11:08 50.04387 8.52811 349 ft 16 kts 95°
2026-04-15 11:08 50.04382 8.52896 353 ft 7 kts 96°
2026-04-15 11:09 50.04376 8.52979 357 ft 8 kts 96°
2026-04-15 11:09 50.04366 8.53061 360 ft 7 kts 103°
2026-04-15 11:09 50.04355 8.53134 364 ft 7 kts 101°
2026-04-15 11:09 50.04349 8.53196 360 ft 5 kts 98°
2026-04-15 11:10 50.04346 8.53249 365 ft 5 kts 91°
2026-04-15 11:10 50.04357 8.53334 373 ft 11 kts 71°
2026-04-15 11:10 50.04381 8.53440 373 ft 9 kts 71°
2026-04-15 11:10 50.04395 8.53537 375 ft 12 kts 83°
2026-04-15 11:11 50.04406 8.53704 375 ft 17 kts 84°
2026-04-15 11:11 50.04420 8.53905 375 ft 18 kts 81°
2026-04-15 11:11 50.04433 8.54073 375 ft 16 kts 84°
2026-04-15 11:11 50.04445 8.54260 375 ft 19 kts 84°
2026-04-15 11:12 50.04447 8.54492 370 ft 25 kts 103°
2026-04-15 11:12 50.04358 8.54721 360 ft 20 kts 139°
2026-04-15 11:12 50.04241 8.54808 357 ft 19 kts 162°
2026-04-15 11:12 50.04143 8.54868 354 ft 14 kts 159°
2026-04-15 11:13 50.04115 8.54885 350 ft 2 kts 158°
2026-04-15 11:13 50.04087 8.54902 357 ft 6 kts 160°
2026-04-15 11:13 50.04076 8.54908 356 ft 3 kts 159°
2026-04-15 11:13 50.04038 8.54935 359 ft 8 kts 146°
2026-04-15 11:14 50.04020 8.55017 361 ft 10 kts 84°
2026-04-15 11:14 50.04045 8.55137 358 ft 13 kts 69°
2026-04-15 11:14 50.04081 8.55283 357 ft 16 kts 69°
2026-04-15 11:14 50.04127 8.55468 354 ft 20 kts 69°
2026-04-15 11:15 50.04171 8.55650 354 ft 13 kts 69°
2026-04-15 11:15 50.04188 8.55722 357 ft 7 kts 69°
2026-04-15 11:15 50.04209 8.55809 359 ft 10 kts 70°
2026-04-15 11:15 50.04234 8.55919 355 ft 12 kts 70°
2026-04-15 11:16 50.04264 8.56049 359 ft 14 kts 69°
2026-04-15 11:16 50.04302 8.56204 357 ft 17 kts 69°
2026-04-15 11:16 50.04345 8.56385 358 ft 19 kts 70°
2026-04-15 11:16 50.04385 8.56552 364 ft 15 kts 69°
2026-04-15 11:17 50.04416 8.56680 361 ft 9 kts 69°
2026-04-15 11:17 50.04439 8.56780 361 ft 11 kts 69°
2026-04-15 11:17 50.04468 8.56897 362 ft 13 kts 69°
2026-04-15 11:17 50.04505 8.57052 364 ft 18 kts 69°
2026-04-15 11:18 50.04552 8.57246 361 ft 20 kts 69°
2026-04-15 11:18 50.04594 8.57426 359 ft 19 kts 71°
2026-04-15 11:18 50.04643 8.57630 360 ft 21 kts 69°
2026-04-15 11:18 50.04697 8.57848 365 ft 21 kts 66°
2026-04-15 11:19 50.04781 8.58002 359 ft 17 kts 55°
2026-04-15 11:19 50.04833 8.58180 362 ft 19 kts 68°
2026-04-15 11:19 50.04881 8.58386 363 ft 22 kts 70°
2026-04-15 11:19 50.04900 8.58464 359 ft 1 kts 69°
2026-04-15 11:20 50.04907 8.58493 362 ft 4 kts 69°
2026-04-15 11:20 50.04923 8.58547 361 ft 7 kts 53°
2026-04-15 11:20 50.04975 8.58562 365 ft 9 kts 345°
2026-04-15 11:20 50.05007 8.58544 359 ft 1 kts 340°
2026-04-15 11:21 50.05014 8.58540 359 ft 0 kts 339°